[[{"header":{"parameterUnit":"m.s-1","parameterCategory":1,"la1":30.2992,"la2":30.254,"lo1":-89.0895,"lo2":-89.0443,"dy":0.0025,"dx":0.0025,"nx":19,"ny":19,"refTime":"2026-05-09T03:00:00:Z","depth":0,"parameterNumber":2,"parameterNumberName":"U-component_of_WINDS"},"data":[0,0,0,-0.989,-0.9889,-0.984,-0.984,-0.9785,-0.9785,0,0,0,0,0,0,0,0,0,0,0,-0.9909,-0.9908,-0.989,-0.9889,-0.984,-0.984,-0.9785,-0.9785,0,0,0,0,0,0,0,0,0,0,0,-0.9909,-0.9908,-0.9908,-0.9889,-0.984,-0.984,-0.9785,-0.9819,0,0,0,0,0,0,0,0,0,0,-0.9865,-0.9887,-0.9908,-0.9908,-0.9888,-0.984,-0.984,-0.9821,-0.9817,-0.981,0,-0.9805,0,-0.9794,-0.9781,-0.9781,0,0,0,-0.9886,-0.989,-0.9873,-0.9908,-0.9888,-0.984,-0.9861,-0.9819,-0.9815,-0.9805,-0.9804,-0.9802,-0.9793,-0.9781,-0.9781,-0.9751,-0.9751,0,0,-0.9888,-0.9902,-0.9876,-0.987,-0.9878,-0.9863,-0.986,-0.9816,-0.9816,-0.9804,-0.98,-0.9792,-0.9781,-0.978,-0.9751,-0.9751,0,0,0,-0.9898,-0.9904,-0.9888,-0.9873,-0.9864,-0.9861,-0.9858,-0.9818,-0.9811,-0.98,-0.9792,-0.978,-0.978,-0.9751,-0.9751,-0.9765,0,0,0,-0.99,-0.991,-0.9889,-0.9897,-0.9865,-0.984,-0.986,-0.9814,-0.9809,-0.9792,-0.978,-0.9779,-0.9751,-0.9751,-0.9765,-0.977,0,0,0,-0.991,-0.9911,-0.9905,-0.9898,-0.9878,-0.984,-0.9831,-0.9813,-0.9804,-0.9781,-0.9779,-0.9751,-0.9751,-0.9765,-0.9769,-0.9766,0,0,0,-0.9926,-0.9918,-0.9906,-0.9895,-0.9878,-0.9849,-0.9831,-0.9809,-0.9791,-0.978,-0.9751,-0.9751,-0.9764,-0.9768,-0.9766,-0.9766,-0.9767,0,0,-0.9924,-0.9919,-0.9911,-0.9898,-0.9875,-0.9856,-0.9835,-0.9805,-0.9791,-0.9765,-0.9764,-0.9765,-0.9769,-0.9766,-0.9771,-0.9772,0,0,0,-0.9915,-0.991,-0.9901,-0.9884,-0.9862,-0.9843,-0.9816,-0.9805,-0.9783,-0.978,-0.9763,-0.9765,-0.9763,-0.9762,-0.9763,-0.976,-0.9752,-0.9752,-0.9752,-0.9932,-0.9914,-0.99,-0.9877,-0.9861,-0.9834,-0.9819,-0.98,-0.9786,-0.9783,-0.9775,-0.978,-0.978,-0.9781,-0.9778,-0.9774,-0.9774,-0.9774,-0.9774,-0.9928,-0.9918,-0.99,-0.988,-0.9862,-0.9845,-0.9818,-0.9809,-0.9791,-0.9784,-0.9781,-0.9775,-0.9783,-0.9779,-0.9775,-0.9775,-0.9774,-0.9774,-0.9774,-0.9937,-0.9929,-0.9916,-0.9892,-0.9875,-0.9851,-0.9835,-0.9819,-0.9803,-0.98,-0.979,-0.979,-0.9788,-0.9797,-0.9797,-0.9797,-0.9797,-0.9797,-0.9797,-0.9951,-0.9937,-0.9925,-0.9901,-0.9889,-0.9871,-0.9844,-0.9832,-0.9814,-0.9803,-0.9803,-0.979,-0.9787,-0.9786,-0.9797,-0.9797,-0.9797,-0.9797,-0.9797,-0.9953,-0.9951,-0.9932,-0.992,-0.9892,-0.9876,-0.9856,-0.9832,-0.982,-0.9813,-0.98,-0.9801,-0.9794,-0.9793,-0.9793,-0.9804,-0.9804,-0.9804,-0.9804,-0.9961,-0.9956,-0.9934,-0.9916,-0.9896,-0.9876,-0.9857,-0.9836,-0.9814,-0.9806,-0.9802,-0.98,-0.98,-0.9793,-0.9792,-0.9791,-0.9802,-0.9802,-0.9802,-0.9961,-0.9954,-0.994,-0.9919,-0.9896,-0.9876,-0.9858,-0.9838,-0.9813,-0.9802,-0.9799,-0.9799,-0.9796,-0.9796,-0.9784,-0.9783,-0.9781,0,0]},{"header":{"parameterUnit":"m.s-1","parameterCategory":1,"la1":30.2992,"la2":30.254,"lo1":-89.0895,"lo2":-89.0443,"dy":0.0025,"dx":0.0025,"nx":19,"ny":19,"refTime":"2026-05-09T03:00:00:Z","depth":0,"parameterNumber":3,"parameterNumberName":"V-component_of_WINDS"},"data":[0,0,0,3.5479,3.5478,3.5438,3.5438,3.5385,3.5384,0,0,0,0,0,0,0,0,0,0,0,3.5492,3.5492,3.5479,3.5478,3.5438,3.5438,3.5385,3.5384,0,0,0,0,0,0,0,0,0,0,0,3.5492,3.5492,3.5491,3.5478,3.5438,3.5438,3.5385,3.5415,0,0,0,0,0,0,0,0,0,0,3.5455,3.5467,3.5492,3.5491,3.5478,3.5438,3.5438,3.5417,3.5414,3.5403,0,3.5395,0,3.5389,3.5381,3.5381,0,0,0,3.5477,3.547,3.5459,3.5491,3.5477,3.5438,3.5456,3.5415,3.5411,3.5399,3.5395,3.5393,3.5388,3.538,3.538,3.5329,3.5329,0,0,3.5479,3.5484,3.5462,3.5457,3.5465,3.5457,3.5455,3.5413,3.5408,3.5394,3.5391,3.5388,3.538,3.538,3.5329,3.5329,0,0,0,3.5486,3.5486,3.5476,3.5459,3.5452,3.5456,3.5453,3.541,3.5406,3.5391,3.5387,3.538,3.5379,3.5329,3.5329,3.5326,0,0,0,3.5488,3.549,3.5477,3.5479,3.5453,3.5431,3.5451,3.5409,3.5404,3.5387,3.538,3.5379,3.5329,3.5329,3.5327,3.5323,0,0,0,3.5494,3.5491,3.5486,3.548,3.5463,3.5431,3.5425,3.5408,3.5402,3.5381,3.5379,3.533,3.5329,3.5327,3.5324,3.5312,0,0,0,3.5502,3.5482,3.5486,3.5462,3.5463,3.5431,3.5425,3.54,3.5382,3.538,3.5329,3.5329,3.5327,3.5324,3.5312,3.5302,3.5299,0,0,3.5479,3.5479,3.5465,3.5467,3.5436,3.5436,3.5403,3.538,3.5372,3.5343,3.5342,3.5326,3.5324,3.5312,3.5279,3.5276,0,0,0,3.546,3.5449,3.544,3.5424,3.5408,3.5393,3.5375,3.5367,3.5343,3.5359,3.5319,3.5317,3.531,3.5305,3.5302,3.5296,3.5327,3.5327,3.5327,3.5434,3.5427,3.5403,3.5392,3.5377,3.536,3.5346,3.5332,3.5327,3.5318,3.5309,3.529,3.5284,3.5283,3.5276,3.5304,3.5304,3.5304,3.5304,3.54,3.5385,3.5383,3.5359,3.5352,3.5331,3.5314,3.5312,3.529,3.5296,3.5289,3.5295,3.528,3.5274,3.5303,3.5303,3.5304,3.5304,3.5304,3.5382,3.5374,3.5366,3.5344,3.5327,3.5316,3.5297,3.529,3.5283,3.5277,3.5267,3.5267,3.5266,3.5273,3.5273,3.5273,3.5273,3.5273,3.5273,3.5367,3.5358,3.5344,3.5327,3.5317,3.5302,3.5286,3.5275,3.5261,3.5258,3.5258,3.5254,3.5281,3.5287,3.5271,3.5272,3.5272,3.5272,3.5272,3.5334,3.5341,3.5319,3.5309,3.5289,3.5273,3.5266,3.5245,3.5235,3.5226,3.5225,3.5245,3.5244,3.5245,3.5251,3.5227,3.5227,3.5227,3.5227,3.5319,3.5319,3.5296,3.528,3.5264,3.5257,3.5231,3.5219,3.5206,3.52,3.5202,3.5209,3.5211,3.5208,3.5211,3.5216,3.5183,3.5183,3.5183,3.5299,3.5297,3.5277,3.5268,3.5252,3.5238,3.5214,3.5195,3.5183,3.5181,3.5194,3.5196,3.5207,3.5211,3.5208,3.5212,3.5221,0,0]}]]